User: anonymous   Login
Location: ???????
(55.5931°N, 39.3286°E)
Time: 10:13:22
(UTC+00:00)
Language:

Cosmos 1340 - Orbit

View from above orbital plane
View from above orbital plane
View from above satellite
View from above satellite

Ground track
Ground track

The orbit data is extracted from the following two-line orbital elements,

1 13067U 82013A   24164.66601031  .00021957  00000-0  48176-3 0  9994
2 13067  81.1770  18.2718 0002455 166.0462 194.0850 15.43923837316159
Epoch (UTC): 12 June 2024 15:59:03
Eccentricity: 0.0002455
inclination: 81.1770°
perigee height: 433 km
apogee height: 436 km
right ascension of ascending node: 18.2718°
argument of perigee: 166.0462°
revolutions per day: 15.43923837
mean anomaly at epoch: 194.0850°
orbit number at epoch: 31615

The dashed part of the orbit path shows where the satellite is in the earth's shadow,  

DLR